| time (UTC) | temp F | wind direction | speed knots | gust knots | rain 1hr in | rain 24hr in | rain mn in | humidity % | barometer mb |
| 20260506164319 | 56 | 0 | 8.7 | 13.9 | 0.00 | 0.00 | 0.00 | 74 | 1011.1 |
| 20260506163317 | 57 | 0 | 9.6 | 13.9 | 0.00 | 0.00 | 0.00 | 72 | 1011.0 |
| 20260506162819 | 56 | 0 | 8.7 | 14.8 | 0.00 | 0.00 | 0.00 | 74 | 1011.0 |
| 20260506161808 | 56 | 0 | 6.1 | 14.8 | 0.00 | 0.00 | 0.00 | 73 | 1010.9 |
| 20260506161309 | 56 | 0 | 8.7 | 14.8 | 0.00 | 0.00 | 0.00 | 75 | 1010.9 |
| 20260506160811 | 56 | 0 | 7.8 | 13.9 | 0.00 | 0.00 | 0.00 | 74 | 1010.9 |
| 20260506160310 | 56 | 0 | 8.7 | 14.8 | 0.00 | 0.00 | 0.00 | 74 | 1010.9 |
| 20260506155811 | 57 | 0 | 10.4 | 14.8 | 0.00 | 0.00 | 0.00 | 72 | 1010.8 |
| 20260506155320 | 57 | 0 | 8.7 | 13.9 | 0.00 | 0.00 | 0.00 | 71 | 1010.8 |
| 20260506154810 | 57 | 0 | 8.7 | 14.8 | 0.00 | 0.00 | 0.00 | 74 | 1010.8 |
| 20260506154310 | 57 | 0 | 9.6 | 14.8 | 0.00 | 0.00 | 0.00 | 73 | 1010.8 |
| 20260506153808 | 57 | 0 | 9.6 | 13.9 | 0.00 | 0.00 | 0.00 | 72 | 1010.8 |
| 20260506153308 | 57 | 0 | 8.7 | 14.8 | 0.00 | 0.00 | 0.00 | 73 | 1010.7 |
| 20260506152806 | 57 | 0 | 9.6 | 14.8 | 0.00 | 0.00 | 0.00 | 73 | 1010.8 |
| 20260506152317 | 57 | 0 | 7.8 | 13.0 | 0.00 | 0.00 | 0.00 | 73 | 1010.9 |
| 20260506151807 | 57 | 0 | 7.0 | 13.0 | 0.00 | 0.00 | 0.00 | 74 | 1010.7 |
| 20260506151307 | 57 | 0 | 6.1 | 14.8 | 0.00 | 0.00 | 0.00 | 73 | 1010.8 |
| 20260506150806 | 57 | 0 | 9.6 | 15.6 | 0.00 | 0.00 | 0.00 | 73 | 1010.9 |
| 20260506145803 | 57 | 0 | 8.7 | 16.5 | 0.00 | 0.00 | 0.00 | 75 | 1010.8 |
| 20260506145305 | 57 | 0 | 8.7 | 14.8 | 0.00 | 0.00 | 0.00 | 75 | 1010.8 |
| 20260506144302 | 56 | 0 | 11.3 | 16.5 | 0.00 | 0.00 | 0.00 | 75 | 1010.8 |
| 20260506143802 | 56 | 0 | 10.4 | 15.6 | 0.00 | 0.00 | 0.00 | 76 | 1010.7 |
| 20260506143302 | 56 | 0 | 9.6 | 18.2 | 0.00 | 0.00 | 0.00 | 75 | 1010.6 |
| 20260506142802 | 57 | 0 | 10.4 | 18.2 | 0.00 | 0.00 | 0.00 | 75 | 1010.6 |
| 20260506142305 | 56 | 0 | 11.3 | 15.6 | 0.00 | 0.00 | 0.00 | 75 | 1010.7 |
| 20260506141803 | 56 | 0 | 10.4 | 16.5 | 0.00 | 0.00 | 0.00 | 75 | 1010.7 |
| 20260506141302 | 57 | 0 | 8.7 | 16.5 | 0.00 | 0.00 | 0.00 | 75 | 1010.6 |
| 20260506140802 | 57 | 0 | 7.8 | 13.9 | 0.00 | 0.00 | 0.00 | 75 | 1010.6 |
| 20260506140302 | 57 | 0 | 7.8 | 13.9 | 0.00 | 0.00 | 0.00 | 75 | 1010.6 |
| 20260506135802 | 57 | 0 | 7.8 | 13.9 | 0.00 | 0.00 | 0.00 | 75 | 1010.6 |
| 20260506135306 | 57 | 0 | 7.8 | 13.9 | 0.00 | 0.00 | 0.00 | 75 | 1010.7 |
| 20260506134304 | 57 | 0 | 7.8 | 12.2 | 0.00 | 0.00 | 0.00 | 75 | 1010.7 |
| 20260506133804 | 57 | 0 | 8.7 | 13.0 | 0.00 | 0.00 | 0.00 | 75 | 1010.6 |
| 20260506133303 | 57 | 0 | 9.6 | 14.8 | 0.00 | 0.00 | 0.00 | 75 | 1010.7 |
| 20260506132305 | 56 | 0 | 7.8 | 14.8 | 0.00 | 0.00 | 0.00 | 75 | 1010.7 |
| 20260506131805 | 56 | 0 | 9.6 | 14.8 | 0.00 | 0.00 | 0.00 | 77 | 1010.6 |
| 20260506131302 | 56 | 0 | 9.6 | 13.9 | 0.00 | 0.00 | 0.00 | 77 | 1010.6 |
| 20260506130803 | 56 | 0 | 7.8 | 14.8 | 0.00 | 0.00 | 0.00 | 77 | 1010.7 |
| 20260506130303 | 56 | 0 | 7.8 | 14.8 | 0.00 | 0.00 | 0.00 | 78 | 1010.7 |
| 20260506125802 | 56 | 0 | 7.8 | 13.0 | 0.00 | 0.00 | 0.00 | 78 | 1010.6 |
| 20260506125305 | 56 | 0 | 7.0 | 13.0 | 0.00 | 0.00 | 0.00 | 79 | 1010.7 |
| 20260506124803 | 56 | 0 | 6.1 | 13.0 | 0.00 | 0.00 | 0.00 | 79 | 1010.5 |
| 20260506124304 | 56 | 0 | 8.7 | 13.0 | 0.00 | 0.00 | 0.00 | 79 | 1010.5 |
| 20260506123802 | 56 | 0 | 6.1 | 11.3 | 0.00 | 0.00 | 0.00 | 79 | 1010.5 |
| 20260506123304 | 55 | 0 | 7.8 | 12.2 | 0.00 | 0.00 | 0.00 | 79 | 1010.5 |
| 20260506122802 | 55 | 0 | 8.7 | 12.2 | 0.00 | 0.00 | 0.00 | 79 | 1010.4 |
| 20260506122305 | 55 | 1 | 8.7 | 13.0 | 0.00 | 0.00 | 0.00 | 79 | 1010.5 |
| 20260506121302 | 55 | 0 | 9.6 | 12.2 | 0.00 | 0.00 | 0.00 | 79 | 1010.6 |
| 20260506120802 | 55 | 0 | 7.0 | 12.2 | 0.00 | 0.00 | 0.00 | 80 | 1010.6 |
| 20260506120302 | 55 | 0 | 6.1 | 13.9 | 0.00 | 0.00 | 0.00 | 80 | 1010.5 |
| 20260506115306 | 55 | 0 | 7.0 | 13.0 | 0.00 | 0.00 | 0.00 | 79 | 1010.6 |
| 20260506114302 | 55 | 0 | 7.0 | 12.2 | 0.00 | 0.00 | 0.00 | 79 | 1010.6 |
| 20260506113301 | 55 | 0 | 9.6 | 13.0 | 0.00 | 0.00 | 0.00 | 79 | 1010.6 |
| 20260506112800 | 55 | 4 | 8.7 | 15.6 | 0.00 | 0.00 | 0.00 | 78 | 1010.6 |
| 20260506112305 | 54 | 0 | 8.7 | 15.6 | 0.00 | 0.00 | 0.00 | 79 | 1010.6 |
| 20260506111800 | 54 | 0 | 9.6 | 13.9 | 0.00 | 0.00 | 0.00 | 79 | 1010.5 |
| 20260506111300 | 54 | 0 | 8.7 | 13.9 | 0.00 | 0.00 | 0.00 | 79 | 1010.5 |
| 20260506110759 | 55 | 0 | 7.0 | 13.9 | 0.00 | 0.00 | 0.00 | 79 | 1010.5 |
| 20260506110300 | 55 | 0 | 7.8 | 14.8 | 0.00 | 0.00 | 0.00 | 78 | 1010.5 |
| 20260506105800 | 55 | 0 | 10.4 | 15.6 | 0.00 | 0.00 | 0.00 | 78 | 1010.5 |
| 20260506105300 | 55 | 0 | 9.6 | 16.5 | 0.00 | 0.00 | 0.00 | 78 | 1010.5 |
| 20260506104800 | 55 | 0 | 8.7 | 18.2 | 0.00 | 0.00 | 0.00 | 78 | 1010.5 |
| 20260506104302 | 55 | 0 | 12.2 | 18.2 | 0.00 | 0.00 | 0.00 | 79 | 1010.5 |
| 20260506103802 | 54 | 0 | 8.7 | 13.0 | 0.00 | 0.00 | 0.00 | 80 | 1010.5 |
| 20260506103301 | 54 | 0 | 7.8 | 15.6 | 0.00 | 0.00 | 0.00 | 80 | 1010.5 |
| 20260506102300 | 53 | 0 | 10.4 | 17.4 | 0.00 | 0.00 | 0.00 | 80 | 1010.4 |
| 20260506101802 | 53 | 0 | 9.6 | 13.9 | 0.00 | 0.00 | 0.00 | 81 | 1010.5 |
| 20260506100800 | 53 | 0 | 8.7 | 14.8 | 0.00 | 0.00 | 0.00 | 79 | 1010.4 |
| 20260506100300 | 53 | 0 | 7.8 | 17.4 | 0.00 | 0.00 | 0.00 | 78 | 1010.5 |
| 20260506095300 | 53 | 7 | 10.4 | 16.5 | 0.00 | 0.00 | 0.00 | 78 | 1010.3 |
| 20260506094759 | 53 | 0 | 12.2 | 16.5 | 0.00 | 0.00 | 0.00 | 77 | 1010.3 |
| 20260506093800 | 54 | 0 | 8.7 | 15.6 | 0.00 | 0.00 | 0.00 | 78 | 1010.2 |
| 20260506093303 | 54 | 0 | 9.6 | 18.2 | 0.00 | 0.00 | 0.00 | 77 | 1010.3 |
| 20260506092800 | 54 | 0 | 10.4 | 18.2 | 0.00 | 0.00 | 0.00 | 77 | 1010.3 |
| 20260506092300 | 54 | 0 | 11.3 | 17.4 | 0.00 | 0.00 | 0.00 | 78 | 1010.2 |
| 20260506091802 | 54 | 0 | 7.8 | 15.6 | 0.00 | 0.00 | 0.00 | 77 | 1010.2 |
| 20260506091300 | 54 | 0 | 7.8 | 15.6 | 0.00 | 0.00 | 0.00 | 78 | 1010.1 |
| 20260506090800 | 54 | 0 | 9.6 | 14.8 | 0.00 | 0.00 | 0.00 | 78 | 1010.1 |
| 20260506090300 | 54 | 0 | 8.7 | 14.8 | 0.00 | 0.00 | 0.00 | 78 | 1010.1 |
| 20260506085800 | 54 | 0 | 11.3 | 14.8 | 0.00 | 0.00 | 0.00 | 78 | 1010.0 |
| 20260506085302 | 54 | 0 | 9.6 | 14.8 | 0.00 | 0.00 | 0.00 | 78 | 1010.0 |
| 20260506084800 | 54 | 0 | 7.0 | 17.4 | 0.00 | 0.00 | 0.00 | 78 | 1009.9 |
| 20260506084259 | 54 | 0 | 10.4 | 17.4 | 0.00 | 0.00 | 0.00 | 78 | 1009.9 |
| 20260506083756 | 54 | 0 | 8.7 | 15.6 | 0.00 | 0.00 | 0.00 | 78 | 1009.8 |
| 20260506083258 | 54 | 0 | 11.3 | 15.6 | 0.00 | 0.00 | 0.00 | 78 | 1009.8 |
| 20260506082757 | 54 | 0 | 7.8 | 17.4 | 0.00 | 0.00 | 0.00 | 78 | 1009.7 |
| 20260506082257 | 54 | 13 | 10.4 | 17.4 | 0.00 | 0.00 | 0.00 | 78 | 1009.7 |
| 20260506081757 | 54 | 0 | 10.4 | 14.8 | 0.00 | 0.00 | 0.00 | 79 | 1009.7 |
| 20260506081259 | 54 | 0 | 7.8 | 14.8 | 0.00 | 0.00 | 0.00 | 79 | 1009.7 |
| 20260506080758 | 54 | 0 | 7.8 | 16.5 | 0.00 | 0.00 | 0.00 | 79 | 1009.6 |
| 20260506080257 | 54 | 0 | 11.3 | 18.2 | 0.00 | 0.00 | 0.00 | 78 | 1009.6 |
| 20260506072756 | 53 | 0 | 10.4 | 14.8 | 0.00 | 0.00 | 0.00 | 81 | 1009.5 |
| 20260506072257 | 53 | 0 | 6.1 | 13.9 | 0.00 | 0.00 | 0.00 | 81 | 1009.6 |
| 20260506071759 | 52 | 0 | 7.8 | 13.9 | 0.00 | 0.00 | 0.00 | 81 | 1009.6 |
| 20260506071258 | 52 | 0 | 9.6 | 15.6 | 0.00 | 0.00 | 0.00 | 82 | 1009.4 |
| 20260506070756 | 52 | 3 | 8.7 | 15.6 | 0.00 | 0.00 | 0.00 | 81 | 1009.4 |
| 20260506070257 | 52 | 0 | 11.3 | 14.8 | 0.00 | 0.00 | 0.00 | 81 | 1009.4 |
| 20260506062254 | 51 | 0 | 7.8 | 12.2 | 0.00 | 0.00 | 0.00 | 83 | 1009.3 |
| 20260506061754 | 51 | 0 | 6.1 | 10.4 | 0.00 | 0.00 | 0.00 | 84 | 1009.4 |
| 20260506061253 | 50 | 0 | 6.1 | 13.0 | 0.00 | 0.00 | 0.00 | 84 | 1009.4 |
| 20260506060756 | 50 | 0 | 7.8 | 13.0 | 0.00 | 0.00 | 0.00 | 84 | 1009.4 |
| 20260506060255 | 50 | 0 | 7.8 | 11.3 | 0.00 | 0.00 | 0.00 | 84 | 1009.4 |
| 20260506051245 | 49 | 0 | 5.2 | 7.8 | 0.00 | 0.00 | 0.00 | 85 | 1009.2 |
| 20260506050744 | 49 | 0 | 5.2 | 9.6 | 0.00 | 0.00 | 0.00 | 85 | 1009.2 |
| 20260506050242 | 49 | 0 | 6.1 | 9.6 | 0.00 | 0.00 | 0.00 | 84 | 1009.3 |
| 20260506044742 | 49 | 0 | 4.3 | 11.3 | 0.00 | 0.00 | 0.00 | 84 | 1009.3 |
| 20260506044243 | 49 | 0 | 5.2 | 11.3 | 0.00 | 0.00 | 0.00 | 84 | 1009.3 |
| 20260506043741 | 49 | 0 | 5.2 | 13.9 | 0.00 | 0.00 | 0.00 | 84 | 1009.3 |
| 20260506043241 | 49 | 0 | 6.1 | 13.9 | 0.00 | 0.00 | 0.00 | 84 | 1009.3 |
| 20260506042742 | 49 | 0 | 5.2 | 12.2 | 0.00 | 0.00 | 0.00 | 84 | 1009.4 |
| 20260506042243 | 49 | 0 | 6.1 | 12.2 | 0.00 | 0.00 | 0.00 | 84 | 1009.4 |
| 20260506041742 | 49 | 0 | 6.1 | 10.4 | 0.00 | 0.00 | 0.00 | 83 | 1009.4 |
| 20260506041241 | 49 | 0 | 6.1 | 10.4 | 0.00 | 0.00 | 0.00 | 83 | 1009.4 |
| 20260506040741 | 49 | 0 | 5.2 | 10.4 | 0.00 | 0.00 | 0.00 | 84 | 1009.4 |
| 20260506035741 | 49 | 0 | 7.0 | 12.2 | 0.00 | 0.00 | 0.00 | 83 | 1009.3 |
| 20260506035246 | 49 | 0 | 6.1 | 11.3 | 0.00 | 0.00 | 0.00 | 83 | 1009.3 |
| 20260506034745 | 49 | 0 | 7.0 | 11.3 | 0.00 | 0.00 | 0.00 | 84 | 1009.4 |
| 20260506034241 | 50 | 0 | 6.1 | 11.3 | 0.00 | 0.00 | 0.00 | 84 | 1009.4 |
| 20260506033741 | 50 | 0 | 7.0 | 11.3 | 0.00 | 0.00 | 0.00 | 84 | 1009.4 |
| 20260506033243 | 50 | 6 | 6.1 | 10.4 | 0.00 | 0.00 | 0.00 | 84 | 1009.4 |
| 20260506032241 | 50 | 0 | 5.2 | 11.3 | 0.00 | 0.00 | 0.00 | 84 | 1009.4 |
| 20260506031741 | 50 | 0 | 7.8 | 11.3 | 0.00 | 0.00 | 0.00 | 84 | 1009.4 |
| 20260506031241 | 50 | 0 | 6.1 | 11.3 | 0.00 | 0.00 | 0.00 | 84 | 1009.4 |
| 20260506030743 | 49 | 0 | 5.2 | 11.3 | 0.00 | 0.00 | 0.00 | 85 | 1009.4 |
| 20260506030244 | 49 | 0 | 5.2 | 8.7 | 0.00 | 0.00 | 0.00 | 85 | 1009.5 |
| 20260506025742 | 49 | 0 | 4.3 | 7.8 | 0.00 | 0.00 | 0.00 | 85 | 1009.5 |
| 20260506025244 | 49 | 0 | 3.5 | 6.1 | 0.00 | 0.00 | 0.00 | 85 | 1009.5 |
| 20260506024743 | 49 | 0 | 2.6 | 4.3 | 0.00 | 0.00 | 0.00 | 85 | 1009.5 |
| 20260506024241 | 49 | 0 | 2.6 | 5.2 | 0.00 | 0.00 | 0.00 | 85 | 1009.5 |
| 20260506023741 | 49 | 0 | 3.5 | 5.2 | 0.00 | 0.00 | 0.00 | 85 | 1009.5 |
| 20260506023244 | 49 | 0 | 3.5 | 5.2 | 0.00 | 0.00 | 0.00 | 85 | 1009.6 |
| 20260506022742 | 49 | 0 | 3.5 | 5.2 | 0.00 | 0.00 | 0.00 | 84 | 1009.6 |
| 20260506022243 | 49 | 0 | 3.5 | 6.1 | 0.00 | 0.00 | 0.00 | 84 | 1009.6 |
| 20260506021743 | 49 | 0 | 3.5 | 8.7 | 0.00 | 0.00 | 0.00 | 84 | 1009.6 |
| 20260506021241 | 49 | 0 | 5.2 | 8.7 | 0.00 | 0.00 | 0.00 | 84 | 1009.6 |
| 20260506020745 | 49 | 0 | 4.3 | 9.6 | 0.00 | 0.00 | 0.00 | 84 | 1009.7 |
| 20260506020242 | 49 | 0 | 6.1 | 9.6 | 0.00 | 0.00 | 0.00 | 84 | 1009.6 |
| 20260506015241 | 49 | 0 | 5.2 | 8.7 | 0.00 | 0.00 | 0.00 | 84 | 1009.6 |
| 20260506014741 | 49 | 0 | 6.1 | 9.6 | 0.00 | 0.00 | 0.00 | 84 | 1009.7 |
| 20260506013743 | 49 | 0 | 4.3 | 10.4 | 0.00 | 0.00 | 0.00 | 84 | 1009.7 |
| 20260506013242 | 49 | 0 | 5.2 | 10.4 | 0.00 | 0.00 | 0.00 | 84 | 1009.7 |
| 20260506012742 | 49 | 0 | 5.2 | 10.4 | 0.00 | 0.00 | 0.00 | 83 | 1009.7 |
| 20260506012242 | 49 | 0 | 6.1 | 10.4 | 0.00 | 0.00 | 0.00 | 83 | 1009.8 |
| 20260506011741 | 49 | 0 | 5.2 | 9.6 | 0.00 | 0.00 | 0.00 | 83 | 1009.7 |
| 20260506011242 | 49 | 0 | 6.1 | 9.6 | 0.00 | 0.00 | 0.00 | 83 | 1009.7 |
| 20260506010743 | 49 | 0 | 6.1 | 9.6 | 0.00 | 0.00 | 0.00 | 83 | 1009.7 |
| 20260506010241 | 49 | 0 | 5.2 | 11.3 | 0.00 | 0.00 | 0.00 | 83 | 1009.7 |
| 20260506005242 | 49 | 0 | 7.0 | 13.0 | 0.00 | 0.00 | 0.00 | 83 | 1009.7 |
| 20260506004242 | 50 | 6 | 9.6 | 14.8 | 0.00 | 0.00 | 0.00 | 83 | 1009.8 |
| 20260506002741 | 50 | 0 | 7.0 | 13.9 | 0.00 | 0.00 | 0.00 | 83 | 1010.0 |
| 20260506002242 | 50 | 0 | 10.4 | 13.9 | 0.00 | 0.00 | 0.00 | 83 | 1010.0 |
| 20260506001743 | 50 | 0 | 7.8 | 13.0 | 0.00 | 0.00 | 0.00 | 83 | 1010.1 |
| 20260506001245 | 50 | 0 | 7.8 | 13.0 | 0.00 | 0.00 | 0.00 | 83 | 1010.1 |
| 20260506000742 | 50 | 7 | 8.7 | 13.0 | 0.00 | 0.00 | 0.00 | 83 | 1010.1 |
| 20260506000242 | 50 | 0 | 7.8 | 12.2 | 0.00 | 0.00 | 0.00 | 83 | 1010.1 |
| 20260505235743 | 50 | 11 | 7.8 | 12.2 | 0.00 | 0.00 | 0.00 | 83 | 1010.2 |
| 20260505234238 | 50 | 1 | 6.1 | 12.2 | 0.00 | 0.00 | 0.00 | 83 | 1010.2 |
| 20260505233735 | 50 | 8 | 7.0 | 13.0 | 0.00 | 0.00 | 0.00 | 83 | 1010.2 |
| 20260505233235 | 50 | 0 | 8.7 | 13.0 | 0.00 | 0.00 | 0.00 | 84 | 1010.2 |
| 20260505231737 | 50 | 1 | 7.8 | 14.8 | 0.00 | 0.00 | 0.00 | 84 | 1010.3 |
| 20260505231236 | 50 | 0 | 6.1 | 14.8 | 0.00 | 0.00 | 0.00 | 84 | 1010.3 |
| 20260505230736 | 50 | 1 | 7.0 | 13.9 | 0.00 | 0.00 | 0.00 | 84 | 1010.2 |
| 20260505230235 | 50 | 0 | 9.6 | 13.9 | 0.00 | 0.00 | 0.00 | 84 | 1010.2 |
| 20260505225736 | 50 | 0 | 7.8 | 12.2 | 0.00 | 0.00 | 0.00 | 84 | 1010.1 |
| 20260505225237 | 50 | 0 | 7.0 | 13.9 | 0.00 | 0.00 | 0.00 | 84 | 1010.2 |
| 20260505224737 | 50 | 0 | 7.0 | 13.9 | 0.00 | 0.00 | 0.00 | 85 | 1010.2 |
| 20260505224237 | 50 | 8 | 7.0 | 11.3 | 0.00 | 0.00 | 0.00 | 85 | 1010.3 |
| 20260505223737 | 50 | 0 | 6.1 | 12.2 | 0.00 | 0.00 | 0.00 | 85 | 1010.3 |
| 20260505223235 | 50 | 0 | 7.8 | 13.0 | 0.00 | 0.00 | 0.00 | 85 | 1010.3 |
| 20260505222739 | 50 | 0 | 5.2 | 13.0 | 0.00 | 0.00 | 0.00 | 85 | 1010.3 |
| 20260505222236 | 50 | 0 | 7.0 | 12.2 | 0.00 | 0.00 | 0.00 | 85 | 1010.3 |
| 20260505221736 | 51 | 0 | 5.2 | 11.3 | 0.00 | 0.00 | 0.00 | 85 | 1010.3 |
| 20260505220237 | 51 | 0 | 6.1 | 12.2 | 0.00 | 0.00 | 0.00 | 85 | 1010.4 |
| 20260505215736 | 51 | 0 | 7.0 | 12.2 | 0.00 | 0.00 | 0.00 | 85 | 1010.4 |
| 20260505215235 | 51 | 0 | 7.8 | 11.3 | 0.00 | 0.00 | 0.00 | 85 | 1010.3 |
| 20260505214740 | 51 | 0 | 7.0 | 12.2 | 0.00 | 0.00 | 0.00 | 85 | 1010.3 |
| 20260505214236 | 51 | 1 | 7.8 | 12.2 | 0.00 | 0.00 | 0.00 | 85 | 1010.3 |
| 20260505213735 | 51 | 10 | 6.1 | 14.8 | 0.00 | 0.00 | 0.00 | 85 | 1010.3 |
| 20260505213236 | 51 | 23 | 7.8 | 14.8 | 0.00 | 0.00 | 0.00 | 84 | 1010.3 |
| 20260505212737 | 51 | 0 | 7.8 | 13.9 | 0.00 | 0.00 | 0.00 | 84 | 1010.3 |
| 20260505212236 | 51 | 0 | 7.8 | 12.2 | 0.00 | 0.00 | 0.00 | 84 | 1010.2 |
| 20260505211733 | 51 | 0 | 8.7 | 13.9 | 0.00 | 0.00 | 0.00 | 84 | 1010.2 |
| 20260505211233 | 51 | 0 | 8.7 | 14.8 | 0.00 | 0.00 | 0.00 | 84 | 1010.2 |
| 20260505210732 | 51 | 0 | 10.4 | 14.8 | 0.00 | 0.00 | 0.00 | 84 | 1010.2 |
| 20260505210232 | 51 | 0 | 7.8 | 13.9 | 0.00 | 0.00 | 0.00 | 84 | 1010.3 |
| 20260505205733 | 51 | 0 | 8.7 | 13.9 | 0.00 | 0.00 | 0.00 | 84 | 1010.3 |
| 20260505205232 | 51 | 0 | 7.8 | 13.9 | 0.00 | 0.00 | 0.00 | 84 | 1010.3 |
| 20260505204732 | 51 | 0 | 7.8 | 13.0 | 0.00 | 0.00 | 0.00 | 84 | 1010.3 |
| 20260505203732 | 51 | 1 | 8.7 | 13.0 | 0.00 | 0.00 | 0.00 | 84 | 1010.3 |
| 20260505203230 | 51 | 0 | 7.8 | 13.0 | 0.00 | 0.00 | 0.00 | 84 | 1010.3 |
| 20260505202731 | 51 | 0 | 7.8 | 13.9 | 0.00 | 0.00 | 0.00 | 84 | 1010.3 |
| 20260505202231 | 51 | 4 | 8.7 | 13.9 | 0.00 | 0.00 | 0.00 | 84 | 1010.3 |
| 20260505201731 | 51 | 0 | 7.0 | 13.9 | 0.00 | 0.00 | 0.00 | 84 | 1010.3 |
| 20260505201231 | 52 | 0 | 8.7 | 13.9 | 0.00 | 0.00 | 0.00 | 84 | 1010.3 |
| 20260505200732 | 52 | 14 | 7.8 | 13.0 | 0.00 | 0.00 | 0.00 | 83 | 1010.2 |
| 20260505200231 | 52 | 0 | 6.1 | 12.2 | 0.00 | 0.00 | 0.00 | 84 | 1010.1 |
| 20260505195231 | 52 | 0 | 8.7 | 13.0 | 0.00 | 0.00 | 0.00 | 83 | 1010.1 |
| 20260505194230 | 52 | 0 | 7.8 | 13.0 | 0.00 | 0.00 | 0.00 | 83 | 1010.0 |
| 20260505193732 | 52 | 0 | 8.7 | 17.4 | 0.00 | 0.00 | 0.00 | 83 | 1009.9 |
| 20260505193233 | 52 | 0 | 11.3 | 17.4 | 0.00 | 0.00 | 0.00 | 83 | 1009.9 |
| 20260505192731 | 52 | 0 | 8.7 | 14.8 | 0.00 | 0.00 | 0.00 | 82 | 1009.9 |
| 20260505191731 | 52 | 6 | 9.6 | 16.5 | 0.00 | 0.00 | 0.00 | 82 | 1009.9 |
| 20260505191231 | 52 | 0 | 7.0 | 12.2 | 0.00 | 0.00 | 0.00 | 81 | 1009.9 |
| 20260505190731 | 53 | 0 | 7.8 | 12.2 | 0.00 | 0.00 | 0.00 | 81 | 1009.9 |
| 20260505190231 | 53 | 0 | 7.8 | 13.0 | 0.00 | 0.00 | 0.00 | 81 | 1009.9 |
| 20260505185734 | 53 | 10 | 7.0 | 15.6 | 0.00 | 0.00 | 0.00 | 81 | 1009.9 |
| 20260505185232 | 53 | 0 | 7.0 | 15.6 | 0.00 | 0.00 | 0.00 | 81 | 1009.8 |
| 20260505184745 | 53 | 0 | 7.8 | 13.9 | 0.00 | 0.00 | 0.00 | 81 | 1009.8 |
| 20260505184231 | 53 | 0 | 7.8 | 12.2 | 0.00 | 0.00 | 0.00 | 81 | 1009.7 |
| 20260505183731 | 53 | 0 | 7.8 | 15.6 | 0.00 | 0.00 | 0.00 | 81 | 1009.8 |
| 20260505183232 | 53 | 0 | 8.7 | 15.6 | 0.00 | 0.00 | 0.00 | 80 | 1009.7 |
| 20260505181733 | 54 | 0 | 9.6 | 16.5 | 0.00 | 0.00 | 0.00 | 80 | 1009.7 |
| 20260505180731 | 54 | 0 | 9.6 | 16.5 | 0.00 | 0.00 | 0.00 | 79 | 1009.7 |
| 20260505180231 | 54 | 0 | 8.7 | 19.1 | 0.00 | 0.00 | 0.00 | 79 | 1009.7 |
| 20260505175731 | 54 | 0 | 13.0 | 19.1 | 0.00 | 0.00 | 0.00 | 78 | 1009.7 |
| 20260505173229 | 55 | 0 | 11.3 | 15.6 | 0.00 | 0.00 | 0.00 | 77 | 1009.6 |
| 20260505172729 | 55 | 0 | 9.6 | 15.6 | 0.00 | 0.00 | 0.00 | 77 | 1009.6 |
| 20260505172229 | 56 | 0 | 9.6 | 14.8 | 0.00 | 0.00 | 0.00 | 77 | 1009.6 |
| 20260505171731 | 56 | 1 | 10.4 | 14.8 | 0.00 | 0.00 | 0.00 | 76 | 1009.7 |
| 20260505171229 | 56 | 0 | 10.4 | 15.6 | 0.00 | 0.00 | 0.00 | 76 | 1009.5 |
| 20260505170233 | 56 | 0 | 10.4 | 16.5 | 0.00 | 0.00 | 0.00 | 76 | 1009.5 |
| 20260505165730 | 57 | 7 | 10.4 | 16.5 | 0.00 | 0.00 | 0.00 | 74 | 1009.6 |
| 20260505164729 | 57 | 0 | 9.6 | 15.6 | 0.00 | 0.00 | 0.00 | 74 | 1009.4 |